Elmira, NY

11:14 AM EDT on August 29, 2016 (GMT -0400)
Elmira-Corning Regional

Weather History for KELM - July, 2013

Change the Weather History Date:

Tuesday, July 16, 2013

  Actual Average Record
Temperature  
Mean Temperature 77 °F -  
Max Temperature 91 °F 83 °F 102 °F (1988)
Min Temperature 64 °F 58 °F 43 °F (1966)
Cooling Degree Days 12    
Growing Degree Days 27 (Base 50)    
Moisture  
Dew Point 66 °F    
Average Humidity 74    
Maximum Humidity 94    
Minimum Humidity 43    
Precipitation  
Precipitation 0.00 in - - ()
Sea Level Pressure  
Sea Level Pressure 30.25 in    
Wind  
Wind Speed 3 mph (WNW)    
Max Wind Speed 9 mph    
Max Gust Speed -    
Visibility 8 miles    
Events      
Averages and records for this station are not official NWS values.
T = Trace of Precipitation, MM = Missing Value Source: NWS Daily Summary

Daily Weather History Graph

Daily Weather History Graph

Search for Another Location

Airport or City:

Trip Planner

Search our weather history database for the weather conditions in past years. The results will help you decide how hot, cold, wet, or windy it might be!

Date:

Astronomy

Jul. 16, 2013 Rise Set
Actual Time 5:45 AM EDT 8:41 PM EDT
Civil Twilight 5:12 AM EDT 9:14 PM EDT
Nautical Twilight 4:30 AM EDT 9:56 PM EDT
Astronomical Twilight 3:40 AM EDT 10:45 PM EDT
Moon 2:17 PM EDT (7/16) 12:17 AM EDT (7/16)
Length of Visible Light 16h 01m
Length of Day
14h 55m
First Quarter, 56% of the Moon is Illuminated
Jul 16
First Quarter
Jul 22
Full
Jul 29
Last Quarter
Aug 6
New
Aug 14
First Quarter

Hourly Weather History & Observations

Time (EDT) Temp. Heat Index Dew Point Humidity Pressure Visibility Wind Dir Wind Speed Gust Speed Precip Events Conditions
12:53 AM 66.9 °F - 63.0 °F 87% 30.25 in 10.0 mi Calm Calm - N/A   Clear
1:53 AM 66.9 °F - 64.0 °F 90% 30.25 in 9.0 mi Calm Calm - N/A   Clear
2:53 AM 64.9 °F - 63.0 °F 93% 30.26 in 9.0 mi Calm Calm - N/A   Clear
3:35 AM 66.2 °F - 62.6 °F 88% 30.27 in 10.0 mi Calm Calm - N/A   Scattered Clouds
3:44 AM 64.4 °F - 62.6 °F 94% 30.27 in 8.0 mi WSW 3.5 mph - N/A   Mostly Cloudy
3:53 AM 64.9 °F - 63.0 °F 93% 30.25 in 8.0 mi WSW 3.5 mph - N/A   Overcast
4:27 AM 68.0 °F - 66.2 °F 94% 30.27 in 2.5 mi West 4.6 mph - N/A   Overcast
4:37 AM 68.0 °F - 66.2 °F 94% 30.27 in 4.0 mi West 3.5 mph - N/A   Overcast
4:53 AM 66.9 °F - 64.9 °F 93% 30.25 in 6.0 mi West 3.5 mph - N/A   Overcast
5:53 AM 66.9 °F - 64.0 °F 90% 30.27 in 2.0 mi WNW 3.5 mph - N/A   Overcast
6:53 AM 69.1 °F - 66.9 °F 93% 30.28 in 2.0 mi WSW 4.6 mph - N/A   Overcast
7:36 AM 71.6 °F - 66.2 °F 83% 30.31 in 4.0 mi WSW 8.1 mph - N/A   Mostly Cloudy
7:44 AM 71.6 °F - 66.2 °F 83% 30.31 in 4.0 mi WSW 8.1 mph - N/A   Scattered Clouds
7:53 AM 72.0 °F - 66.9 °F 84% 30.29 in 4.0 mi WSW 6.9 mph - N/A   Haze
8:53 AM 75.9 °F - 66.9 °F 74% 30.30 in 10.0 mi WSW 6.9 mph - N/A   Clear
9:53 AM 80.1 °F 82.7 °F 68.0 °F 67% 30.28 in 10.0 mi SW 4.6 mph - N/A   Clear
10:53 AM 86.0 °F 88.2 °F 66.0 °F 51% 30.27 in 10.0 mi NW 9.2 mph - N/A   Clear
11:53 AM 87.1 °F 89.2 °F 66.0 °F 49% 30.26 in 10.0 mi Variable 3.5 mph - N/A   Partly Cloudy
12:53 PM 89.1 °F 92.1 °F 66.9 °F 48% 30.25 in 10.0 mi North 9.2 mph - N/A   Partly Cloudy
1:53 PM 90.0 °F 91.7 °F 64.9 °F 43% 30.24 in 10.0 mi North 8.1 mph - N/A   Scattered Clouds
2:53 PM 88.0 °F 90.3 °F 66.0 °F 48% 30.23 in 10.0 mi NE 8.1 mph - N/A   Scattered Clouds
3:53 PM 90.0 °F 92.4 °F 66.0 °F 45% 30.21 in 10.0 mi NNE 6.9 mph - N/A   Partly Cloudy
4:53 PM 89.1 °F 91.3 °F 66.0 °F 46% 30.20 in 10.0 mi NE 8.1 mph - N/A   Clear
5:53 PM 89.1 °F 92.1 °F 66.9 °F 48% 30.20 in 10.0 mi NE 4.6 mph - N/A   Clear
6:53 PM 87.1 °F 90.6 °F 68.0 °F 53% 30.20 in 10.0 mi North 4.6 mph - N/A   Clear
7:53 PM 82.0 °F 85.9 °F 70.0 °F 67% 30.21 in 10.0 mi Calm Calm - N/A   Clear
8:53 PM 78.1 °F - 66.9 °F 68% 30.22 in 10.0 mi Calm Calm - N/A   Clear
9:53 PM 73.9 °F - 68.0 °F 82% 30.23 in 10.0 mi Calm Calm - 0.00 in   Clear
10:53 PM 71.1 °F - 66.9 °F 87% 30.23 in 8.0 mi Calm Calm - N/A   Clear
11:53 PM 69.1 °F - 66.0 °F 90% 30.24 in 7.0 mi Calm Calm - N/A   Clear